| time (UTC) | temp C | wind direction | speed KPH | gust KPH | rain 1hr cm | rain 24hr cm | rain mn cm | humidity % | barometer mb |
| 20260508092645 | 1 | 177 | 0.0 | 0.0 | 0.00 | 0.00 | 0.00 | 99 | 1017.5 |
| 20260508092144 | 1 | 177 | 0.0 | 0.0 | 0.00 | 0.00 | 0.00 | 99 | 1017.4 |
| 20260508091641 | 1 | 178 | 0.0 | 0.0 | 0.00 | 0.00 | 0.00 | 99 | 1017.2 |
| 20260508091137 | 1 | 176 | 0.0 | 0.0 | 0.00 | 0.00 | 0.00 | 99 | 1017.3 |
| 20260508090635 | 1 | 189 | 0.0 | 0.0 | 0.00 | 0.00 | 0.00 | 99 | 1017.3 |
| 20260508090132 | 1 | 192 | 0.0 | 0.0 | 0.00 | 0.00 | 0.00 | 99 | 1017.2 |
| 20260508085628 | 1 | 194 | 0.0 | 0.0 | 0.00 | 0.00 | 0.00 | 99 | 1017.2 |
| 20260508085126 | 1 | 192 | 0.0 | 0.0 | 0.00 | 0.00 | 0.00 | 99 | 1017.3 |
| 20260508084622 | 1 | 192 | 0.0 | 0.0 | 0.00 | 0.00 | 0.00 | 99 | 1017.6 |
| 20260508084120 | 1 | 192 | 0.0 | 0.0 | 0.00 | 0.00 | 0.00 | 99 | 1017.5 |
| 20260508083616 | 1 | 192 | 0.0 | 0.0 | 0.00 | 0.00 | 0.00 | 99 | 1017.3 |
| 20260508083114 | 1 | 192 | 0.0 | 0.0 | 0.00 | 0.00 | 0.00 | 99 | 1017.2 |
| 20260508082609 | 1 | 192 | 0.0 | 0.0 | 0.00 | 0.00 | 0.00 | 99 | 1017.2 |
| 20260508082107 | 1 | 193 | 0.0 | 0.0 | 0.00 | 0.00 | 0.00 | 99 | 1017.0 |
| 20260508081604 | 1 | 194 | 0.0 | 0.0 | 0.00 | 0.00 | 0.00 | 99 | 1017.3 |
| 20260508081100 | 1 | 198 | 0.0 | 0.0 | 0.00 | 0.00 | 0.00 | 99 | 1017.0 |
| 20260508080558 | 1 | 197 | 0.0 | 0.0 | 0.00 | 0.00 | 0.00 | 99 | 1017.1 |
| 20260508080055 | 1 | 196 | 0.0 | 0.0 | 0.00 | 0.00 | 0.00 | 99 | 1017.1 |
| 20260508075552 | 1 | 196 | 0.0 | 0.0 | 0.00 | 0.00 | 0.00 | 99 | 1017.2 |
| 20260508075049 | 1 | 196 | 0.0 | 0.0 | 0.00 | 0.00 | 0.00 | 99 | 1017.1 |
| 20260508074547 | 1 | 196 | 0.0 | 0.0 | 0.00 | 0.00 | 0.00 | 99 | 1017.3 |
| 20260508074043 | 1 | 196 | 0.0 | 0.0 | 0.00 | 0.00 | 0.00 | 99 | 1017.3 |
| 20260508073541 | 1 | 196 | 0.0 | 0.0 | 0.00 | 0.00 | 0.00 | 99 | 1017.1 |
| 20260508073038 | 1 | 195 | 0.0 | 0.0 | 0.00 | 0.00 | 0.00 | 99 | 1017.2 |
| 20260508072534 | 1 | 195 | 0.0 | 0.0 | 0.00 | 0.00 | 0.00 | 99 | 1017.1 |
| 20260508072031 | 1 | 195 | 0.0 | 0.0 | 0.00 | 0.00 | 0.00 | 99 | 1017.1 |
| 20260508071529 | 1 | 195 | 0.0 | 0.0 | 0.00 | 0.00 | 0.00 | 99 | 1017.1 |
| 20260508071026 | 1 | 191 | 0.0 | 0.0 | 0.00 | 0.00 | 0.00 | 99 | 1017.2 |
| 20260508070524 | 1 | 193 | 0.0 | 0.0 | 0.00 | 0.00 | 0.00 | 99 | 1017.3 |
| 20260508070022 | 1 | 193 | 0.0 | 0.0 | 0.00 | 0.00 | 0.00 | 99 | 1017.4 |
| 20260508065520 | 2 | 193 | 0.0 | 0.0 | 0.00 | 0.00 | 0.00 | 99 | 1017.4 |
| 20260508065018 | 2 | 194 | 0.0 | 0.0 | 0.00 | 0.00 | 0.00 | 99 | 1017.2 |
| 20260508064515 | 1 | 193 | 0.0 | 0.0 | 0.00 | 0.00 | 0.00 | 99 | 1017.4 |
| 20260508064013 | 1 | 193 | 0.0 | 0.0 | 0.00 | 0.00 | 0.00 | 99 | 1017.4 |
| 20260508063510 | 1 | 193 | 0.0 | 0.0 | 0.00 | 0.00 | 0.00 | 99 | 1017.5 |
| 20260508063007 | 2 | 193 | 0.0 | 0.0 | 0.00 | 0.00 | 0.00 | 99 | 1017.3 |
| 20260508062505 | 2 | 193 | 0.0 | 0.0 | 0.00 | 0.00 | 0.00 | 99 | 1017.3 |
| 20260508062001 | 2 | 192 | 0.0 | 0.0 | 0.00 | 0.00 | 0.00 | 99 | 1017.4 |
| 20260508061500 | 2 | 190 | 0.0 | 0.0 | 0.00 | 0.00 | 0.00 | 99 | 1017.0 |
| 20260508060955 | 2 | 195 | 0.0 | 0.0 | 0.00 | 0.00 | 0.00 | 99 | 1017.3 |
| 20260508060453 | 2 | 191 | 0.0 | 0.0 | 0.00 | 0.00 | 0.00 | 99 | 1017.3 |
| 20260508055949 | 2 | 192 | 0.0 | 0.0 | 0.00 | 0.00 | 0.00 | 99 | 1017.3 |
| 20260508055446 | 2 | 196 | 0.0 | 0.0 | 0.00 | 0.00 | 0.00 | 99 | 1017.5 |
| 20260508054942 | 2 | 201 | 0.0 | 0.0 | 0.00 | 0.00 | 0.00 | 98 | 1017.3 |
| 20260508054439 | 2 | 201 | 0.0 | 0.0 | 0.00 | 0.00 | 0.00 | 98 | 1017.4 |
| 20260508053936 | 2 | 201 | 0.0 | 0.0 | 0.00 | 0.00 | 0.00 | 98 | 1017.4 |
| 20260508053433 | 2 | 201 | 0.0 | 0.0 | 0.00 | 0.00 | 0.00 | 98 | 1017.4 |
| 20260508052931 | 2 | 201 | 0.0 | 0.0 | 0.00 | 0.00 | 0.00 | 98 | 1017.4 |
| 20260508052428 | 2 | 201 | 0.0 | 0.0 | 0.00 | 0.00 | 0.00 | 98 | 1017.6 |
| 20260508051924 | 2 | 201 | 0.0 | 0.0 | 0.00 | 0.00 | 0.00 | 98 | 1017.4 |
| 20260508051420 | 2 | 201 | 0.0 | 0.0 | 0.00 | 0.00 | 0.00 | 98 | 1017.5 |
| 20260508050916 | 2 | 201 | 0.0 | 0.0 | 0.00 | 0.00 | 0.00 | 98 | 1017.5 |
| 20260508050413 | 2 | 201 | 0.0 | 0.0 | 0.00 | 0.00 | 0.00 | 98 | 1017.4 |
| 20260508045909 | 2 | 203 | 0.0 | 0.0 | 0.00 | 0.00 | 0.00 | 98 | 1017.6 |
| 20260508045407 | 2 | 211 | 0.0 | 0.0 | 0.00 | 0.00 | 0.00 | 98 | 1017.7 |
| 20260508044904 | 2 | 211 | 0.0 | 0.0 | 0.00 | 0.00 | 0.00 | 98 | 1017.6 |
| 20260508044401 | 2 | 211 | 0.0 | 0.0 | 0.00 | 0.00 | 0.00 | 98 | 1017.5 |
| 20260508043856 | 3 | 211 | 0.0 | 0.0 | 0.00 | 0.00 | 0.00 | 98 | 1017.5 |
| 20260508043354 | 3 | 212 | 0.0 | 0.0 | 0.00 | 0.00 | 0.00 | 97 | 1017.5 |
| 20260508042850 | 3 | 215 | 0.0 | 0.0 | 0.00 | 0.00 | 0.00 | 97 | 1017.5 |
| 20260508042348 | 3 | 215 | 0.0 | 0.0 | 0.00 | 0.00 | 0.00 | 97 | 1017.3 |
| 20260508041844 | 3 | 215 | 0.0 | 0.0 | 0.00 | 0.00 | 0.00 | 97 | 1017.4 |
| 20260508041341 | 3 | 215 | 0.0 | 0.0 | 0.00 | 0.00 | 0.00 | 97 | 1017.4 |
| 20260508040838 | 3 | 215 | 0.0 | 0.0 | 0.00 | 0.00 | 0.00 | 97 | 1017.5 |
| 20260508040335 | 3 | 215 | 0.0 | 0.0 | 0.00 | 0.00 | 0.00 | 97 | 1017.4 |
| 20260508035832 | 3 | 215 | 0.0 | 0.0 | 0.00 | 0.00 | 0.00 | 96 | 1017.4 |
| 20260508035330 | 3 | 216 | 0.0 | 0.0 | 0.00 | 0.00 | 0.00 | 96 | 1017.3 |
| 20260508034826 | 3 | 219 | 0.0 | 0.0 | 0.00 | 0.00 | 0.00 | 96 | 1017.1 |
| 20260508034324 | 3 | 219 | 0.0 | 0.0 | 0.00 | 0.00 | 0.00 | 96 | 1017.3 |
| 20260508033820 | 3 | 219 | 0.0 | 0.0 | 0.00 | 0.00 | 0.00 | 96 | 1017.3 |
| 20260508033319 | 3 | 219 | 0.0 | 0.0 | 0.00 | 0.00 | 0.00 | 96 | 1017.3 |
| 20260508032816 | 3 | 219 | 0.0 | 0.0 | 0.00 | 0.00 | 0.00 | 96 | 1017.4 |
| 20260508032313 | 3 | 219 | 0.0 | 0.0 | 0.00 | 0.00 | 0.00 | 96 | 1017.3 |
| 20260508031809 | 3 | 219 | 0.0 | 0.0 | 0.00 | 0.00 | 0.00 | 96 | 1017.3 |
| 20260508031306 | 3 | 219 | 0.0 | 0.0 | 0.00 | 0.00 | 0.00 | 95 | 1017.4 |
| 20260508030802 | 4 | 219 | 0.0 | 0.0 | 0.00 | 0.00 | 0.00 | 95 | 1017.2 |
| 20260508030300 | 4 | 219 | 0.0 | 0.0 | 0.00 | 0.00 | 0.00 | 95 | 1017.3 |
| 20260508025756 | 4 | 219 | 0.0 | 0.0 | 0.00 | 0.00 | 0.00 | 95 | 1017.1 |
| 20260508025254 | 4 | 221 | 0.0 | 0.0 | 0.00 | 0.00 | 0.00 | 94 | 1016.8 |
| 20260508024749 | 4 | 221 | 0.0 | 0.0 | 0.00 | 0.00 | 0.00 | 94 | 1017.0 |
| 20260508024246 | 4 | 220 | 0.0 | 0.0 | 0.00 | 0.00 | 0.00 | 94 | 1017.0 |
| 20260508023743 | 5 | 220 | 0.0 | 0.0 | 0.00 | 0.00 | 0.00 | 94 | 1017.0 |
| 20260508023241 | 5 | 220 | 0.0 | 0.0 | 0.00 | 0.00 | 0.00 | 93 | 1016.8 |
| 20260508022736 | 5 | 220 | 0.0 | 0.0 | 0.00 | 0.00 | 0.00 | 93 | 1016.8 |
| 20260508022233 | 5 | 220 | 0.0 | 0.0 | 0.00 | 0.00 | 0.00 | 92 | 1016.8 |
| 20260508021730 | 5 | 220 | 0.0 | 0.0 | 0.00 | 0.00 | 0.00 | 92 | 1016.3 |
| 20260508021225 | 5 | 220 | 0.0 | 0.0 | 0.00 | 0.00 | 0.00 | 92 | 1016.6 |
| 20260508020723 | 5 | 220 | 0.0 | 0.0 | 0.00 | 0.00 | 0.00 | 92 | 1016.4 |
| 20260508020220 | 5 | 220 | 0.0 | 0.0 | 0.00 | 0.00 | 0.00 | 91 | 1016.3 |
| 20260508015717 | 5 | 220 | 0.0 | 0.0 | 0.00 | 0.00 | 0.00 | 90 | 1016.3 |
| 20260508015214 | 5 | 220 | 0.0 | 0.0 | 0.00 | 0.00 | 0.00 | 90 | 1016.2 |
| 20260508014711 | 6 | 220 | 0.0 | 0.0 | 0.00 | 0.00 | 0.00 | 88 | 1016.1 |
| 20260508014208 | 6 | 220 | 0.0 | 0.0 | 0.00 | 0.00 | 0.00 | 88 | 1016.1 |
| 20260508013703 | 6 | 221 | 0.0 | 0.0 | 0.00 | 0.00 | 0.00 | 87 | 1015.9 |
| 20260508013200 | 6 | 221 | 0.0 | 0.0 | 0.00 | 0.00 | 0.00 | 87 | 1016.1 |
| 20260508012658 | 6 | 221 | 0.0 | 0.0 | 0.00 | 0.00 | 0.00 | 86 | 1015.8 |
| 20260508012154 | 6 | 221 | 0.0 | 0.0 | 0.00 | 0.00 | 0.00 | 85 | 1015.7 |
| 20260508011653 | 6 | 221 | 0.0 | 0.0 | 0.00 | 0.00 | 0.00 | 85 | 1015.9 |
| 20260508011150 | 7 | 221 | 0.0 | 0.0 | 0.00 | 0.00 | 0.00 | 85 | 1015.7 |
| 20260508010647 | 7 | 221 | 0.0 | 0.0 | 0.00 | 0.00 | 0.00 | 83 | 1015.6 |
| 20260508010145 | 7 | 221 | 0.0 | 0.0 | 0.00 | 0.00 | 0.00 | 82 | 1015.6 |
| 20260508005642 | 8 | 219 | 0.0 | 0.0 | 0.00 | 0.00 | 0.00 | 79 | 1015.6 |
| 20260508005138 | 8 | 223 | 0.0 | 0.0 | 0.00 | 0.00 | 0.00 | 78 | 1015.3 |
| 20260508004634 | 8 | 228 | 0.0 | 0.0 | 0.00 | 0.00 | 0.00 | 78 | 1015.4 |
| 20260508004130 | 8 | 211 | 0.0 | 0.0 | 0.00 | 0.00 | 0.00 | 76 | 1015.3 |
| 20260508003627 | 9 | 203 | 0.0 | 0.0 | 0.00 | 0.00 | 0.00 | 74 | 1015.3 |
| 20260508003125 | 9 | 205 | 0.0 | 1.6 | 0.00 | 0.00 | 0.00 | 71 | 1015.1 |
| 20260508002621 | 10 | 226 | 0.0 | 0.0 | 0.00 | 0.00 | 0.00 | 70 | 1015.0 |
| 20260508002119 | 10 | 233 | 0.0 | 0.0 | 0.00 | 0.00 | 0.00 | 67 | 1015.1 |
| 20260508001614 | 10 | 229 | 0.0 | 0.0 | 0.00 | 0.00 | 0.00 | 66 | 1014.9 |
| 20260508001110 | 11 | 227 | 0.0 | 0.0 | 0.00 | 0.00 | 0.00 | 58 | 1014.9 |
| 20260508000606 | 11 | 208 | 0.0 | 1.6 | 0.00 | 0.00 | 0.00 | 56 | 1014.8 |
| 20260508000104 | 12 | 213 | 0.0 | 3.2 | 0.00 | 0.00 | 0.00 | 55 | 1014.8 |
| 20260507235600 | 13 | 212 | 0.0 | 3.2 | 0.00 | 0.00 | 0.00 | 46 | 1014.8 |
| 20260507235058 | 13 | 278 | 4.8 | 4.8 | 0.00 | 0.00 | 0.00 | 50 | 1014.7 |
| 20260507234554 | 13 | 77 | 0.0 | 3.2 | 0.00 | 0.00 | 0.00 | 55 | 1014.7 |
| 20260507234050 | 13 | 168 | 0.0 | 1.6 | 0.00 | 0.00 | 0.00 | 42 | 1014.7 |
| 20260507233547 | 13 | 237 | 1.6 | 4.8 | 0.00 | 0.00 | 0.00 | 42 | 1014.5 |
| 20260507233046 | 13 | 280 | 1.6 | 1.6 | 0.00 | 0.00 | 0.00 | 50 | 1014.5 |
| 20260507232542 | 14 | 131 | 0.0 | 4.8 | 0.00 | 0.00 | 0.00 | 41 | 1014.6 |
| 20260507232039 | 14 | 52 | 1.6 | 1.6 | 0.00 | 0.00 | 0.00 | 39 | 1014.5 |
| 20260507231536 | 14 | 12 | 0.0 | 1.6 | 0.00 | 0.00 | 0.00 | 38 | 1014.4 |
| 20260507231033 | 15 | 239 | 0.0 | 0.0 | 0.00 | 0.00 | 0.00 | 40 | 1014.3 |
| 20260507230530 | 15 | 353 | 3.2 | 4.8 | 0.00 | 0.00 | 0.00 | 38 | 1014.3 |
| 20260507230026 | 15 | 53 | 3.2 | 3.2 | 0.00 | 0.00 | 0.00 | 38 | 1014.3 |
| 20260507225521 | 15 | 193 | 1.6 | 6.4 | 0.00 | 0.00 | 0.00 | 41 | 1014.3 |
| 20260507225018 | 15 | 100 | 0.0 | 3.2 | 0.00 | 0.00 | 0.00 | 38 | 1014.2 |
| 20260507224513 | 16 | 235 | 3.2 | 3.2 | 0.00 | 0.00 | 0.00 | 38 | 1014.3 |
| 20260507224010 | 16 | 69 | 9.7 | 17.7 | 0.00 | 0.00 | 0.00 | 37 | 1014.1 |
| 20260507223506 | 16 | 336 | 0.0 | 4.8 | 0.00 | 0.00 | 0.00 | 39 | 1014.1 |
| 20260507223004 | 16 | 36 | 3.2 | 4.8 | 0.00 | 0.00 | 0.00 | 41 | 1014.1 |
| 20260507222501 | 16 | 53 | 4.8 | 4.8 | 0.00 | 0.00 | 0.00 | 40 | 1014.1 |
| 20260507221957 | 15 | 63 | 1.6 | 9.7 | 0.00 | 0.00 | 0.00 | 42 | 1014.1 |
| 20260507221453 | 16 | 99 | 1.6 | 3.2 | 0.00 | 0.00 | 0.00 | 41 | 1014.3 |
| 20260507220950 | 15 | 52 | 1.6 | 1.6 | 0.00 | 0.00 | 0.00 | 43 | 1014.1 |
| 20260507220448 | 15 | 105 | 1.6 | 6.4 | 0.00 | 0.00 | 0.00 | 41 | 1014.1 |
| 20260507215944 | 16 | 169 | 4.8 | 6.4 | 0.00 | 0.00 | 0.00 | 41 | 1013.8 |
| 20260507215441 | 16 | 117 | 0.0 | 3.2 | 0.00 | 0.00 | 0.00 | 40 | 1014.1 |
| 20260507214938 | 16 | 351 | 0.0 | 6.4 | 0.00 | 0.00 | 0.00 | 40 | 1014.0 |
| 20260507214436 | 17 | 177 | 1.6 | 6.4 | 0.00 | 0.00 | 0.00 | 38 | 1013.8 |
| 20260507213931 | 17 | 8 | 9.7 | 14.5 | 0.00 | 0.00 | 0.00 | 40 | 1013.7 |
| 20260507213428 | 17 | 311 | 1.6 | 3.2 | 0.00 | 0.00 | 0.00 | 38 | 1013.7 |
| 20260507212925 | 17 | 191 | 3.2 | 3.2 | 0.00 | 0.00 | 0.00 | 47 | 1013.7 |
| 20260507212420 | 16 | 341 | 3.2 | 4.8 | 0.00 | 0.00 | 0.00 | 44 | 1013.6 |
| 20260507211918 | 15 | 127 | 0.0 | 3.2 | 0.00 | 0.00 | 0.00 | 44 | 1013.4 |
| 20260507211414 | 16 | 41 | 0.0 | 12.9 | 0.00 | 0.00 | 0.00 | 44 | 1013.4 |
| 20260507210911 | 17 | 67 | 1.6 | 9.7 | 0.00 | 0.00 | 0.00 | 40 | 1013.4 |
| 20260507210408 | 17 | 3 | 3.2 | 6.4 | 0.00 | 0.00 | 0.00 | 41 | 1013.5 |
| 20260507205904 | 18 | 203 | 6.4 | 6.4 | 0.00 | 0.00 | 0.00 | 40 | 1013.4 |
| 20260507205402 | 17 | 57 | 1.6 | 3.2 | 0.00 | 0.00 | 0.00 | 39 | 1013.4 |
| 20260507204858 | 17 | 12 | 3.2 | 9.7 | 0.00 | 0.00 | 0.00 | 43 | 1013.4 |
| 20260507204355 | 16 | 76 | 8.0 | 17.7 | 0.00 | 0.00 | 0.00 | 40 | 1013.2 |
| 20260507203852 | 17 | 59 | 1.6 | 3.2 | 0.00 | 0.00 | 0.00 | 43 | 1013.4 |
| 20260507203350 | 16 | 112 | 3.2 | 9.7 | 0.00 | 0.00 | 0.00 | 40 | 1013.3 |
| 20260507202846 | 16 | 70 | 3.2 | 6.4 | 0.00 | 0.00 | 0.00 | 44 | 1013.3 |
| 20260507202343 | 16 | 32 | 0.0 | 3.2 | 0.00 | 0.00 | 0.00 | 45 | 1013.6 |
| 20260507201838 | 16 | 201 | 4.8 | 9.7 | 0.00 | 0.00 | 0.00 | 41 | 1013.4 |
| 20260507201334 | 17 | 130 | 0.0 | 1.6 | 0.00 | 0.00 | 0.00 | 38 | 1013.4 |
| 20260507200830 | 17 | 88 | 4.8 | 9.7 | 0.00 | 0.00 | 0.00 | 40 | 1013.3 |
| 20260507200327 | 17 | 147 | 3.2 | 4.8 | 0.00 | 0.00 | 0.00 | 39 | 1013.4 |
| 20260507195823 | 17 | 123 | 0.0 | 11.3 | 0.00 | 0.00 | 0.00 | 41 | 1013.8 |
| 20260507195320 | 17 | 58 | 1.6 | 6.4 | 0.00 | 0.00 | 0.00 | 49 | 1013.7 |
| 20260507194817 | 16 | 3 | 0.0 | 4.8 | 0.00 | 0.00 | 0.00 | 46 | 1013.7 |
| 20260507194313 | 15 | 139 | 1.6 | 12.9 | 0.00 | 0.00 | 0.00 | 44 | 1013.7 |
| 20260507193810 | 16 | 172 | 1.6 | 9.7 | 0.00 | 0.00 | 0.00 | 46 | 1013.8 |
| 20260507193307 | 15 | 58 | 8.0 | 12.9 | 0.00 | 0.00 | 0.00 | 44 | 1013.8 |
| 20260507192803 | 16 | 74 | 4.8 | 6.4 | 0.00 | 0.00 | 0.00 | 45 | 1014.0 |
| 20260507192300 | 16 | 67 | 8.0 | 11.3 | 0.00 | 0.00 | 0.00 | 43 | 1014.0 |
| 20260507191756 | 16 | 76 | 3.2 | 9.7 | 0.00 | 0.00 | 0.00 | 44 | 1014.1 |
| 20260507191253 | 17 | 143 | 0.0 | 9.7 | 0.00 | 0.00 | 0.00 | 44 | 1014.3 |
| 20260507190749 | 17 | 136 | 1.6 | 6.4 | 0.00 | 0.00 | 0.00 | 44 | 1014.1 |
| 20260507190248 | 16 | 178 | 0.0 | 1.6 | 0.00 | 0.00 | 0.00 | 47 | 1014.1 |
| 20260507185746 | 16 | 212 | 3.2 | 20.9 | 0.00 | 0.00 | 0.00 | 45 | 1014.4 |
| 20260507185243 | 16 | 54 | 4.8 | 11.3 | 0.00 | 0.00 | 0.00 | 49 | 1014.3 |
| 20260507184741 | 16 | 77 | 3.2 | 11.3 | 0.00 | 0.00 | 0.00 | 47 | 1014.4 |
| 20260507184238 | 15 | 239 | 3.2 | 9.7 | 0.00 | 0.00 | 0.00 | 46 | 1014.3 |
| 20260507183735 | 15 | 54 | 4.8 | 12.9 | 0.00 | 0.00 | 0.00 | 47 | 1014.2 |
| 20260507183232 | 15 | 103 | 1.6 | 9.7 | 0.00 | 0.00 | 0.00 | 47 | 1014.2 |
| 20260507182729 | 15 | 144 | 3.2 | 11.3 | 0.00 | 0.00 | 0.00 | 48 | 1014.0 |
| 20260507182224 | 16 | 58 | 4.8 | 11.3 | 0.00 | 0.00 | 0.00 | 43 | 1014.2 |
| 20260507181721 | 16 | 52 | 1.6 | 6.4 | 0.00 | 0.00 | 0.00 | 50 | 1014.1 |
| 20260507181218 | 15 | 145 | 1.6 | 6.4 | 0.00 | 0.00 | 0.00 | 50 | 1014.2 |
| 20260507180714 | 15 | 75 | 0.0 | 3.2 | 0.00 | 0.00 | 0.00 | 51 | 1014.2 |
| 20260507180211 | 15 | 13 | 1.6 | 3.2 | 0.00 | 0.00 | 0.00 | 52 | 1014.3 |
| 20260507175707 | 15 | 63 | 1.6 | 3.2 | 0.00 | 0.00 | 0.00 | 49 | 1014.1 |
| 20260507175204 | 15 | 100 | 1.6 | 12.9 | 0.00 | 0.00 | 0.00 | 49 | 1014.3 |
| 20260507174701 | 15 | 82 | 1.6 | 4.8 | 0.00 | 0.00 | 0.00 | 55 | 1014.3 |
| 20260507174159 | 15 | 136 | 1.6 | 1.6 | 0.00 | 0.00 | 0.00 | 45 | 1014.5 |
| 20260507173656 | 15 | 42 | 3.2 | 12.9 | 0.00 | 0.00 | 0.00 | 50 | 1014.7 |
| 20260507173153 | 15 | 92 | 0.0 | 3.2 | 0.00 | 0.00 | 0.00 | 49 | 1014.6 |
| 20260507172650 | 15 | 323 | 4.8 | 14.5 | 0.00 | 0.00 | 0.00 | 50 | 1014.6 |
| 20260507172147 | 15 | 114 | 3.2 | 11.3 | 0.00 | 0.00 | 0.00 | 49 | 1014.5 |
| 20260507171647 | 15 | 118 | 1.6 | 3.2 | 0.00 | 0.00 | 0.00 | 53 | 1014.6 |
| 20260507171144 | 15 | 83 | 0.0 | 3.2 | 0.00 | 0.00 | 0.00 | 47 | 1014.4 |
| 20260507170641 | 15 | 78 | 0.0 | 9.7 | 0.00 | 0.00 | 0.00 | 51 | 1014.9 |
| 20260507170138 | 15 | 42 | 6.4 | 6.4 | 0.00 | 0.00 | 0.00 | 53 | 1014.6 |
| 20260507165634 | 15 | 38 | 8.0 | 11.3 | 0.00 | 0.00 | 0.00 | 49 | 1014.9 |
| 20260507165130 | 15 | 205 | 3.2 | 9.7 | 0.00 | 0.00 | 0.00 | 50 | 1014.7 |
| 20260507164626 | 15 | 251 | 0.0 | 3.2 | 0.00 | 0.00 | 0.00 | 51 | 1014.9 |
| 20260507164123 | 14 | 116 | 0.0 | 3.2 | 0.00 | 0.00 | 0.00 | 52 | 1015.1 |
| 20260507163620 | 14 | 62 | 0.0 | 4.8 | 0.00 | 0.00 | 0.00 | 53 | 1015.1 |
| 20260507163119 | 15 | 61 | 1.6 | 4.8 | 0.00 | 0.00 | 0.00 | 56 | 1015.0 |
| 20260507162614 | 14 | 353 | 0.0 | 6.4 | 0.00 | 0.00 | 0.00 | 50 | 1015.1 |
| 20260507162111 | 14 | 110 | 4.8 | 12.9 | 0.00 | 0.00 | 0.00 | 54 | 1015.3 |
| 20260507161607 | 13 | 130 | 0.0 | 0.0 | 0.00 | 0.00 | 0.00 | 62 | 1015.2 |
| 20260507161103 | 13 | 53 | 3.2 | 4.8 | 0.00 | 0.00 | 0.00 | 55 | 1015.3 |
| 20260507160600 | 13 | 32 | 9.7 | 11.3 | 0.00 | 0.00 | 0.00 | 53 | 1015.4 |
| 20260507160056 | 14 | 151 | 1.6 | 4.8 | 0.00 | 0.00 | 0.00 | 54 | 1015.2 |
| 20260507155551 | 15 | 96 | 0.0 | 3.2 | 0.00 | 0.00 | 0.00 | 55 | 1015.4 |
| 20260507155049 | 14 | 118 | 0.0 | 4.8 | 0.00 | 0.00 | 0.00 | 55 | 1015.4 |
| 20260507154545 | 14 | 28 | 1.6 | 4.8 | 0.00 | 0.00 | 0.00 | 55 | 1015.3 |
| 20260507154043 | 14 | 165 | 1.6 | 6.4 | 0.00 | 0.00 | 0.00 | 55 | 1015.4 |
| 20260507153539 | 13 | 149 | 0.0 | 1.6 | 0.00 | 0.00 | 0.00 | 57 | 1015.4 |
| 20260507153036 | 13 | 93 | 0.0 | 3.2 | 0.00 | 0.00 | 0.00 | 59 | 1015.4 |
| 20260507152531 | 15 | 17 | 8.0 | 11.3 | 0.00 | 0.00 | 0.00 | 52 | 1015.5 |
| 20260507152028 | 14 | 148 | 1.6 | 3.2 | 0.00 | 0.00 | 0.00 | 54 | 1015.6 |
| 20260507151524 | 13 | 62 | 0.0 | 3.2 | 0.00 | 0.00 | 0.00 | 62 | 1015.5 |
| 20260507151021 | 13 | 316 | 3.2 | 4.8 | 0.00 | 0.00 | 0.00 | 58 | 1015.5 |
| 20260507150518 | 13 | 89 | 0.0 | 6.4 | 0.00 | 0.00 | 0.00 | 63 | 1015.6 |
| 20260507150015 | 13 | 50 | 0.0 | 6.4 | 0.00 | 0.00 | 0.00 | 57 | 1015.6 |
| 20260507145510 | 13 | 202 | 1.6 | 3.2 | 0.00 | 0.00 | 0.00 | 61 | 1015.5 |
| 20260507145008 | 13 | 70 | 0.0 | 1.6 | 0.00 | 0.00 | 0.00 | 68 | 1015.6 |
| 20260507144504 | 13 | 334 | 6.4 | 6.4 | 0.00 | 0.00 | 0.00 | 62 | 1015.7 |
| 20260507144001 | 14 | 335 | 0.0 | 4.8 | 0.00 | 0.00 | 0.00 | 68 | 1015.7 |
| 20260507143459 | 13 | 56 | 3.2 | 4.8 | 0.00 | 0.00 | 0.00 | 70 | 1015.7 |
| 20260507142955 | 14 | 15 | 3.2 | 3.2 | 0.00 | 0.00 | 0.00 | 59 | 1015.4 |
| 20260507142451 | 13 | 241 | 1.6 | 11.3 | 0.00 | 0.00 | 0.00 | 60 | 1015.4 |
| 20260507141948 | 13 | 49 | 3.2 | 4.8 | 0.00 | 0.00 | 0.00 | 69 | 1015.9 |
| 20260507141444 | 13 | 67 | 3.2 | 4.8 | 0.00 | 0.00 | 0.00 | 71 | 1015.9 |
| 20260507140941 | 13 | 149 | 0.0 | 3.2 | 0.00 | 0.00 | 0.00 | 67 | 1015.9 |
| 20260507140438 | 13 | 79 | 0.0 | 4.8 | 0.00 | 0.00 | 0.00 | 67 | 1016.1 |
| 20260507135936 | 13 | 96 | 0.0 | 1.6 | 0.00 | 0.00 | 0.00 | 76 | 1016.1 |
| 20260507135432 | 13 | 87 | 0.0 | 3.2 | 0.00 | 0.00 | 0.00 | 76 | 1016.3 |
| 20260507134930 | 12 | 81 | 0.0 | 3.2 | 0.00 | 0.00 | 0.00 | 81 | 1016.2 |
| 20260507134426 | 13 | 66 | 1.6 | 1.6 | 0.00 | 0.00 | 0.00 | 82 | 1016.6 |
| 20260507133922 | 13 | 123 | 0.0 | 0.0 | 0.00 | 0.00 | 0.00 | 80 | 1016.4 |
| 20260507133418 | 12 | 123 | 0.0 | 0.0 | 0.00 | 0.00 | 0.00 | 86 | 1016.3 |
| 20260507132917 | 12 | 123 | 0.0 | 0.0 | 0.00 | 0.00 | 0.00 | 87 | 1016.4 |
| 20260507132413 | 11 | 123 | 0.0 | 0.0 | 0.00 | 0.00 | 0.00 | 92 | 1016.6 |
| 20260507131909 | 10 | 123 | 0.0 | 0.0 | 0.00 | 0.00 | 0.00 | 94 | 1016.6 |
| 20260507131406 | 10 | 123 | 0.0 | 0.0 | 0.00 | 0.00 | 0.00 | 95 | 1016.4 |
| 20260507130903 | 10 | 123 | 0.0 | 0.0 | 0.00 | 0.00 | 0.00 | 96 | 1016.7 |
| 20260507130400 | 10 | 123 | 0.0 | 0.0 | 0.00 | 0.00 | 0.00 | 97 | 1016.4 |
| 20260507125859 | 10 | 123 | 0.0 | 0.0 | 0.00 | 0.00 | 0.00 | 98 | 1016.7 |
| 20260507125356 | 10 | 123 | 0.0 | 0.0 | 0.00 | 0.00 | 0.00 | 98 | 1016.7 |
| 20260507124854 | 10 | 123 | 0.0 | 0.0 | 0.00 | 0.00 | 0.00 | 99 | 1016.4 |
| 20260507124349 | 10 | 127 | 0.0 | 0.0 | 0.00 | 0.00 | 0.00 | 99 | 1016.4 |
| 20260507123848 | 9 | 127 | 0.0 | 0.0 | 0.00 | 0.00 | 0.00 | 99 | 1016.4 |
| 20260507123345 | 9 | 127 | 0.0 | 0.0 | 0.00 | 0.00 | 0.00 | 99 | 1016.6 |
| 20260507122841 | 9 | 128 | 0.0 | 0.0 | 0.00 | 0.00 | 0.00 | 99 | 1016.3 |
| 20260507122337 | 9 | 128 | 0.0 | 0.0 | 0.00 | 0.00 | 0.00 | 99 | 1016.6 |
| 20260507121834 | 8 | 128 | 0.0 | 0.0 | 0.00 | 0.00 | 0.00 | 99 | 1016.6 |
| 20260507121329 | 8 | 128 | 0.0 | 0.0 | 0.00 | 0.00 | 0.00 | 99 | 1016.8 |
| 20260507120826 | 8 | 128 | 0.0 | 0.0 | 0.00 | 0.00 | 0.00 | 99 | 1016.7 |
| 20260507120322 | 8 | 128 | 0.0 | 0.0 | 0.00 | 0.00 | 0.00 | 99 | 1016.8 |
| 20260507115818 | 8 | 128 | 0.0 | 0.0 | 0.00 | 0.00 | 0.00 | 99 | 1016.6 |
| 20260507115314 | 8 | 128 | 0.0 | 0.0 | 0.00 | 0.00 | 0.00 | 99 | 1016.9 |
| 20260507114810 | 8 | 128 | 0.0 | 0.0 | 0.00 | 0.00 | 0.00 | 99 | 1016.7 |
| 20260507114308 | 8 | 128 | 0.0 | 0.0 | 0.00 | 0.00 | 0.00 | 99 | 1016.6 |
| 20260507113805 | 8 | 128 | 0.0 | 0.0 | 0.00 | 0.00 | 0.00 | 99 | 1016.6 |
| 20260507113302 | 8 | 128 | 0.0 | 0.0 | 0.00 | 0.00 | 0.00 | 99 | 1016.4 |
| 20260507112759 | 8 | 128 | 0.0 | 0.0 | 0.00 | 0.00 | 0.00 | 99 | 1016.2 |
| 20260507112256 | 7 | 128 | 0.0 | 0.0 | 0.00 | 0.00 | 0.00 | 99 | 1016.2 |
| 20260507111754 | 7 | 128 | 0.0 | 0.0 | 0.00 | 0.00 | 0.00 | 99 | 1016.1 |
| 20260507111250 | 7 | 128 | 0.0 | 0.0 | 0.00 | 0.00 | 0.00 | 99 | 1016.1 |
| 20260507110746 | 7 | 128 | 0.0 | 0.0 | 0.00 | 0.00 | 0.00 | 99 | 1016.1 |
| 20260507110243 | 7 | 128 | 0.0 | 0.0 | 0.00 | 0.00 | 0.00 | 99 | 1015.9 |
| 20260507105740 | 7 | 128 | 0.0 | 0.0 | 0.00 | 0.00 | 0.00 | 99 | 1016.0 |
| 20260507105236 | 7 | 128 | 0.0 | 0.0 | 0.00 | 0.00 | 0.00 | 99 | 1015.9 |
| 20260507104733 | 7 | 128 | 0.0 | 0.0 | 0.00 | 0.00 | 0.00 | 99 | 1015.6 |
| 20260507104230 | 7 | 128 | 0.0 | 0.0 | 0.00 | 0.00 | 0.00 | 99 | 1015.6 |
| 20260507103726 | 7 | 128 | 0.0 | 0.0 | 0.00 | 0.00 | 0.00 | 99 | 1015.9 |
| 20260507103222 | 7 | 128 | 0.0 | 0.0 | 0.00 | 0.00 | 0.00 | 99 | 1015.6 |
| 20260507102719 | 7 | 128 | 0.0 | 0.0 | 0.00 | 0.00 | 0.00 | 99 | 1015.4 |
| 20260507102215 | 7 | 128 | 0.0 | 0.0 | 0.00 | 0.00 | 0.00 | 99 | 1015.2 |
| 20260507101711 | 7 | 128 | 0.0 | 0.0 | 0.00 | 0.00 | 0.00 | 99 | 1015.7 |
| 20260507101207 | 7 | 128 | 0.0 | 0.0 | 0.00 | 0.00 | 0.00 | 99 | 1015.8 |
| 20260507100704 | 7 | 128 | 0.0 | 0.0 | 0.00 | 0.00 | 0.00 | 99 | 1015.7 |
| 20260507100203 | 7 | 128 | 0.0 | 0.0 | 0.00 | 0.00 | 0.00 | 99 | 1015.9 |
| 20260507095700 | 7 | 128 | 0.0 | 0.0 | 0.00 | 0.00 | 0.00 | 99 | 1015.8 |
| 20260507095156 | 7 | 125 | 0.0 | 0.0 | 0.00 | 0.00 | 0.00 | 99 | 1015.9 |
| 20260507094653 | 7 | 124 | 0.0 | 0.0 | 0.00 | 0.00 | 0.00 | 99 | 1015.9 |
| 20260507094150 | 7 | 124 | 0.0 | 0.0 | 0.00 | 0.00 | 0.00 | 99 | 1015.7 |
| 20260507093647 | 7 | 124 | 0.0 | 0.0 | 0.00 | 0.00 | 0.00 | 99 | 1015.9 |
| 20260507093146 | 7 | 124 | 0.0 | 0.0 | 0.00 | 0.00 | 0.00 | 99 | 1015.8 |